| time (UTC) | temp F | wind direction | speed knots | gust knots | rain 1hr in | rain 24hr in | rain mn in | humidity % | barometer mb |
| 20260906023219 | 75 | 296 | 0.9 | 0.9 | 0.00 | 0.00 | 0.00 | 69 | 1014.9 |
| 20260906022714 | 75 | 333 | 0.9 | 1.7 | 0.00 | 0.00 | 0.00 | 68 | 1014.9 |
| 20260906022209 | 75 | 334 | 0.9 | 1.7 | 0.00 | 0.00 | 0.00 | 66 | 1014.9 |
| 20260906021706 | 75 | 328 | 0.0 | 1.7 | 0.00 | 0.00 | 0.00 | 64 | 1014.9 |
| 20260906021204 | 75 | 281 | 1.7 | 2.6 | 0.00 | 0.00 | 0.00 | 63 | 1014.9 |
| 20260906020659 | 76 | 325 | 0.9 | 1.7 | 0.00 | 0.00 | 0.00 | 63 | 1014.9 |
| 20260906020154 | 76 | 308 | 1.7 | 2.6 | 0.00 | 0.00 | 0.00 | 61 | 1014.9 |
| 20260906015648 | 76 | 319 | 0.9 | 2.6 | 0.00 | 0.00 | 0.00 | 61 | 1014.6 |
| 20260906015147 | 77 | 301 | 0.9 | 3.5 | 0.00 | 0.00 | 0.00 | 61 | 1014.6 |
| 20260906014647 | 77 | 338 | 0.0 | 0.9 | 0.00 | 0.00 | 0.00 | 64 | 1014.6 |
| 20260906014143 | 77 | 324 | 0.0 | 2.6 | 0.00 | 0.00 | 0.00 | 62 | 1014.6 |
| 20260906013638 | 77 | 256 | 2.6 | 3.5 | 0.00 | 0.00 | 0.00 | 64 | 1014.9 |
| 20260906013134 | 77 | 307 | 2.6 | 6.1 | 0.00 | 0.00 | 0.00 | 61 | 1014.9 |
| 20260906012633 | 78 | 236 | 2.6 | 3.5 | 0.00 | 0.00 | 0.00 | 62 | 1014.9 |
| 20260906012128 | 78 | 344 | 1.7 | 5.2 | 0.00 | 0.00 | 0.00 | 63 | 1014.9 |
| 20260906011624 | 78 | 332 | 0.9 | 1.7 | 0.00 | 0.00 | 0.00 | 62 | 1014.9 |
| 20260906011119 | 79 | 340 | 0.9 | 3.5 | 0.00 | 0.00 | 0.00 | 60 | 1014.9 |
| 20260906010614 | 78 | 261 | 1.7 | 3.5 | 0.00 | 0.00 | 0.00 | 56 | 1014.6 |
| 20260906010110 | 79 | 178 | 3.5 | 5.2 | 0.00 | 0.00 | 0.00 | 52 | 1014.6 |
| 20260906005610 | 79 | 311 | 1.7 | 1.7 | 0.00 | 0.00 | 0.00 | 52 | 1014.6 |
| 20260906005109 | 79 | 278 | 1.7 | 2.6 | 0.00 | 0.00 | 0.00 | 54 | 1014.6 |
| 20260906004608 | 79 | 300 | 1.7 | 3.5 | 0.00 | 0.00 | 0.00 | 54 | 1014.6 |
| 20260906004103 | 79 | 212 | 1.7 | 3.5 | 0.00 | 0.00 | 0.00 | 52 | 1014.6 |
| 20260906003558 | 79 | 183 | 1.7 | 3.5 | 0.00 | 0.00 | 0.00 | 53 | 1014.6 |
| 20260906003054 | 79 | 16 | 1.7 | 2.6 | 0.00 | 0.00 | 0.00 | 52 | 1014.6 |
| 20260906002549 | 78 | 295 | 0.9 | 2.6 | 0.00 | 0.00 | 0.00 | 58 | 1014.6 |
| 20260906002044 | 79 | 263 | 2.6 | 2.6 | 0.00 | 0.00 | 0.00 | 63 | 1014.6 |
| 20260906001539 | 81 | 271 | 1.7 | 3.5 | 0.00 | 0.00 | 0.00 | 60 | 1014.6 |
| 20260906001033 | 80 | 235 | 3.5 | 5.2 | 0.00 | 0.00 | 0.00 | 63 | 1014.9 |
| 20260906000529 | 80 | 263 | 2.6 | 5.2 | 0.00 | 0.00 | 0.00 | 63 | 1014.9 |
| 20260906000024 | 80 | 261 | 1.7 | 6.1 | 0.00 | 0.00 | 0.00 | 62 | 1014.6 |
| 20260905235518 | 81 | 278 | 3.5 | 5.2 | 0.00 | 0.00 | 0.00 | 60 | 1014.6 |
| 20260905235013 | 80 | 218 | 1.7 | 3.5 | 0.00 | 0.00 | 0.00 | 61 | 1014.6 |
| 20260905234508 | 80 | 240 | 2.6 | 6.1 | 0.00 | 0.00 | 0.00 | 63 | 1014.6 |
| 20260905234002 | 80 | 309 | 3.5 | 5.2 | 0.00 | 0.00 | 0.00 | 64 | 1014.6 |
| 20260905233458 | 79 | 298 | 3.5 | 5.2 | 0.00 | 0.00 | 0.00 | 65 | 1014.6 |
| 20260905232956 | 80 | 1 | 1.7 | 3.5 | 0.00 | 0.00 | 0.00 | 64 | 1014.6 |
| 20260905232453 | 80 | 248 | 1.7 | 6.1 | 0.00 | 0.00 | 0.00 | 63 | 1014.6 |
| 20260905231948 | 81 | 255 | 3.5 | 5.2 | 0.00 | 0.00 | 0.00 | 63 | 1014.9 |
| 20260905231444 | 80 | 293 | 1.7 | 3.5 | 0.00 | 0.00 | 0.00 | 64 | 1014.9 |
| 20260905230940 | 80 | 278 | 2.6 | 5.2 | 0.00 | 0.00 | 0.00 | 63 | 1014.9 |
| 20260905230438 | 82 | 253 | 1.7 | 5.2 | 0.00 | 0.00 | 0.00 | 62 | 1014.6 |
| 20260905225937 | 81 | 307 | 1.7 | 5.2 | 0.00 | 0.00 | 0.00 | 63 | 1014.9 |
| 20260905225432 | 82 | 348 | 1.7 | 6.1 | 0.00 | 0.00 | 0.00 | 61 | 1014.6 |
| 20260905224927 | 81 | 284 | 3.5 | 6.1 | 0.00 | 0.00 | 0.00 | 62 | 1014.9 |
| 20260905224423 | 82 | 210 | 3.5 | 3.5 | 0.00 | 0.00 | 0.00 | 61 | 1014.9 |
| 20260905223922 | 81 | 248 | 4.3 | 5.2 | 0.00 | 0.00 | 0.00 | 63 | 1014.9 |
| 20260905223421 | 82 | 246 | 3.5 | 6.1 | 0.00 | 0.00 | 0.00 | 62 | 1014.9 |
| 20260905222920 | 81 | 248 | 3.5 | 5.2 | 0.00 | 0.00 | 0.00 | 62 | 1014.9 |
| 20260905222420 | 82 | 262 | 2.6 | 3.5 | 0.00 | 0.00 | 0.00 | 62 | 1014.9 |
| 20260905221916 | 83 | 218 | 1.7 | 5.2 | 0.00 | 0.00 | 0.00 | 60 | 1014.9 |
| 20260905221413 | 82 | 301 | 0.9 | 5.2 | 0.00 | 0.00 | 0.00 | 62 | 1015.3 |
| 20260905220909 | 81 | 225 | 3.5 | 5.2 | 0.00 | 0.00 | 0.00 | 63 | 1014.9 |
| 20260905220404 | 81 | 264 | 1.7 | 5.2 | 0.00 | 0.00 | 0.00 | 62 | 1014.9 |
| 20260905215903 | 82 | 269 | 2.6 | 3.5 | 0.00 | 0.00 | 0.00 | 61 | 1015.6 |
| 20260905215359 | 82 | 224 | 3.5 | 3.5 | 0.00 | 0.00 | 0.00 | 61 | 1015.3 |
| 20260905214855 | 83 | 271 | 2.6 | 6.1 | 0.00 | 0.00 | 0.00 | 60 | 1015.3 |
| 20260905214350 | 82 | 207 | 3.5 | 5.2 | 0.00 | 0.00 | 0.00 | 60 | 1015.3 |
| 20260905213845 | 82 | 226 | 3.5 | 3.5 | 0.00 | 0.00 | 0.00 | 60 | 1015.3 |
| 20260905213341 | 84 | 255 | 3.5 | 3.5 | 0.00 | 0.00 | 0.00 | 57 | 1015.6 |
| 20260905212836 | 82 | 310 | 1.7 | 2.6 | 0.00 | 0.00 | 0.00 | 60 | 1015.6 |
| 20260905212336 | 84 | 251 | 4.3 | 6.1 | 0.00 | 0.00 | 0.00 | 59 | 1015.6 |
| 20260905211830 | 84 | 276 | 3.5 | 5.2 | 0.00 | 0.00 | 0.00 | 58 | 1015.6 |
| 20260905211326 | 82 | 258 | 2.6 | 5.2 | 0.00 | 0.00 | 0.00 | 61 | 1015.6 |
| 20260905210822 | 83 | 299 | 3.5 | 5.2 | 0.00 | 0.00 | 0.00 | 59 | 1016.0 |
| 20260905210322 | 82 | 238 | 1.7 | 5.2 | 0.00 | 0.00 | 0.00 | 61 | 1016.0 |
| 20260905205821 | 81 | 211 | 2.6 | 5.2 | 0.00 | 0.00 | 0.00 | 62 | 1015.6 |
| 20260905205316 | 82 | 268 | 3.5 | 5.2 | 0.00 | 0.00 | 0.00 | 60 | 1016.0 |
| 20260905204815 | 82 | 248 | 3.5 | 5.2 | 0.00 | 0.00 | 0.00 | 62 | 1016.0 |
| 20260905204311 | 82 | 339 | 0.9 | 3.5 | 0.00 | 0.00 | 0.00 | 62 | 1016.0 |
| 20260905203810 | 82 | 155 | 0.9 | 5.2 | 0.00 | 0.00 | 0.00 | 62 | 1016.3 |
| 20260905203306 | 81 | 334 | 0.9 | 2.6 | 0.00 | 0.00 | 0.00 | 62 | 1016.0 |
| 20260905202801 | 81 | 263 | 2.6 | 5.2 | 0.00 | 0.00 | 0.00 | 63 | 1016.3 |
| 20260905202256 | 81 | 239 | 2.6 | 5.2 | 0.00 | 0.00 | 0.00 | 64 | 1016.0 |
| 20260905201752 | 82 | 278 | 4.3 | 5.2 | 0.00 | 0.00 | 0.00 | 61 | 1016.0 |
| 20260905201247 | 81 | 318 | 1.7 | 2.6 | 0.00 | 0.00 | 0.00 | 63 | 1016.3 |
| 20260905200742 | 81 | 337 | 1.7 | 2.6 | 0.00 | 0.00 | 0.00 | 62 | 1016.3 |
| 20260905200237 | 81 | 232 | 5.2 | 6.1 | 0.00 | 0.00 | 0.00 | 62 | 1016.3 |
| 20260905195735 | 82 | 203 | 3.5 | 5.2 | 0.00 | 0.00 | 0.00 | 61 | 1016.3 |
| 20260905195230 | 81 | 307 | 0.9 | 6.1 | 0.00 | 0.00 | 0.00 | 63 | 1016.6 |
| 20260905194726 | 81 | 292 | 1.7 | 3.5 | 0.00 | 0.00 | 0.00 | 62 | 1016.6 |
| 20260905194225 | 82 | 215 | 3.5 | 3.5 | 0.00 | 0.00 | 0.00 | 62 | 1016.6 |
| 20260905193719 | 81 | 300 | 3.5 | 3.5 | 0.00 | 0.00 | 0.00 | 62 | 1016.6 |
| 20260905193214 | 81 | 250 | 3.5 | 5.2 | 0.00 | 0.00 | 0.00 | 62 | 1016.6 |
| 20260905192710 | 81 | 264 | 1.7 | 3.5 | 0.00 | 0.00 | 0.00 | 62 | 1016.3 |
| 20260905192206 | 82 | 223 | 1.7 | 5.2 | 0.00 | 0.00 | 0.00 | 62 | 1017.0 |
| 20260905191706 | 82 | 264 | 1.7 | 5.2 | 0.00 | 0.00 | 0.00 | 62 | 1016.6 |
| 20260905191204 | 81 | 245 | 0.9 | 2.6 | 0.00 | 0.00 | 0.00 | 62 | 1016.6 |
| 20260905190703 | 81 | 299 | 1.7 | 3.5 | 0.00 | 0.00 | 0.00 | 62 | 1016.6 |
| 20260905190202 | 81 | 144 | 1.7 | 3.5 | 0.00 | 0.00 | 0.00 | 63 | 1017.0 |
| 20260905185701 | 82 | 2 | 1.7 | 2.6 | 0.00 | 0.00 | 0.00 | 62 | 1017.0 |
| 20260905185155 | 82 | 212 | 2.6 | 2.6 | 0.00 | 0.00 | 0.00 | 62 | 1017.0 |
| 20260905184655 | 83 | 318 | 0.9 | 2.6 | 0.00 | 0.00 | 0.00 | 60 | 1017.3 |
| 20260905184154 | 82 | 260 | 1.7 | 3.5 | 0.00 | 0.00 | 0.00 | 60 | 1017.3 |
| 20260905183648 | 80 | 222 | 2.6 | 2.6 | 0.00 | 0.00 | 0.00 | 63 | 1017.3 |
| 20260905183143 | 80 | 181 | 1.7 | 3.5 | 0.00 | 0.00 | 0.00 | 64 | 1017.3 |
| 20260905182643 | 81 | 273 | 1.7 | 2.6 | 0.00 | 0.00 | 0.00 | 63 | 1017.0 |
| 20260905182143 | 81 | 130 | 1.7 | 2.6 | 0.00 | 0.00 | 0.00 | 63 | 1017.6 |
| 20260905181638 | 81 | 186 | 1.7 | 3.5 | 0.00 | 0.00 | 0.00 | 64 | 1017.3 |
| 20260905181137 | 80 | 306 | 1.7 | 2.6 | 0.00 | 0.00 | 0.00 | 64 | 1017.3 |
| 20260905180632 | 80 | 101 | 0.9 | 3.5 | 0.00 | 0.00 | 0.00 | 65 | 1017.6 |
| 20260905180127 | 80 | 236 | 1.7 | 5.2 | 0.00 | 0.00 | 0.00 | 64 | 1017.6 |
| 20260905175626 | 80 | 154 | 1.7 | 2.6 | 0.00 | 0.00 | 0.00 | 64 | 1017.3 |
| 20260905175122 | 81 | 224 | 3.5 | 5.2 | 0.00 | 0.00 | 0.00 | 64 | 1017.3 |
| 20260905174617 | 81 | 252 | 0.9 | 2.6 | 0.00 | 0.00 | 0.00 | 63 | 1017.3 |
| 20260905174113 | 81 | 314 | 1.7 | 2.6 | 0.00 | 0.00 | 0.00 | 57 | 1017.3 |
| 20260905173609 | 82 | 64 | 0.0 | 0.9 | 0.00 | 0.00 | 0.00 | 56 | 1017.3 |
| 20260905173104 | 81 | 347 | 0.0 | 0.9 | 0.00 | 0.00 | 0.00 | 58 | 1017.0 |
| 20260905172603 | 80 | 182 | 0.9 | 1.7 | 0.00 | 0.00 | 0.00 | 59 | 1017.3 |
| 20260905172058 | 80 | 20 | 0.9 | 0.9 | 0.00 | 0.00 | 0.00 | 60 | 1017.3 |
| 20260905171554 | 79 | 76 | 2.6 | 3.5 | 0.00 | 0.00 | 0.00 | 61 | 1017.0 |
| 20260905171050 | 79 | 303 | 0.0 | 3.5 | 0.00 | 0.00 | 0.00 | 62 | 1017.3 |
| 20260905170547 | 79 | 261 | 1.7 | 1.7 | 0.00 | 0.00 | 0.00 | 62 | 1017.3 |
| 20260905170042 | 80 | 49 | 0.0 | 0.9 | 0.00 | 0.00 | 0.00 | 61 | 1017.0 |
| 20260905165537 | 78 | 352 | 0.0 | 0.9 | 0.00 | 0.00 | 0.00 | 64 | 1017.3 |
| 20260905165032 | 77 | 317 | 0.9 | 2.6 | 0.00 | 0.00 | 0.00 | 65 | 1017.0 |
| 20260905164526 | 77 | 342 | 0.9 | 1.7 | 0.00 | 0.00 | 0.00 | 65 | 1017.0 |
| 20260905164021 | 78 | 95 | 1.7 | 1.7 | 0.00 | 0.00 | 0.00 | 63 | 1017.0 |
| 20260905163517 | 78 | 12 | 0.9 | 2.6 | 0.00 | 0.00 | 0.00 | 64 | 1017.0 |
| 20260905163013 | 78 | 34 | 0.0 | 1.7 | 0.00 | 0.00 | 0.00 | 65 | 1017.0 |
| 20260905162508 | 77 | 31 | 0.9 | 1.7 | 0.00 | 0.00 | 0.00 | 66 | 1017.0 |
| 20260905162003 | 76 | 48 | 1.7 | 1.7 | 0.00 | 0.00 | 0.00 | 68 | 1017.0 |
| 20260905161503 | 76 | 62 | 1.7 | 2.6 | 0.00 | 0.00 | 0.00 | 68 | 1017.0 |
| 20260905161000 | 78 | 176 | 0.9 | 2.6 | 0.00 | 0.00 | 0.00 | 66 | 1017.0 |
| 20260905160454 | 76 | 7 | 0.0 | 0.9 | 0.00 | 0.00 | 0.00 | 69 | 1017.0 |
| 20260905155954 | 77 | 59 | 0.0 | 0.9 | 0.00 | 0.00 | 0.00 | 69 | 1017.0 |
| 20260905155449 | 77 | 27 | 0.9 | 0.9 | 0.00 | 0.00 | 0.00 | 70 | 1017.0 |
| 20260905154947 | 75 | 349 | 0.0 | 0.9 | 0.00 | 0.00 | 0.00 | 73 | 1017.0 |
| 20260905154442 | 76 | 357 | 0.0 | 1.7 | 0.00 | 0.00 | 0.00 | 72 | 1017.0 |
| 20260905153938 | 77 | 28 | 0.0 | 1.7 | 0.00 | 0.00 | 0.00 | 70 | 1017.0 |
| 20260905153434 | 77 | 348 | 0.0 | 0.0 | 0.00 | 0.00 | 0.00 | 72 | 1017.0 |
| 20260905152934 | 76 | 347 | 0.0 | 0.0 | 0.00 | 0.00 | 0.00 | 73 | 1017.0 |
| 20260905152434 | 75 | 345 | 0.0 | 1.7 | 0.00 | 0.00 | 0.00 | 74 | 1017.0 |
| 20260905151928 | 74 | 14 | 0.9 | 1.7 | 0.00 | 0.00 | 0.00 | 75 | 1017.0 |
| 20260905151425 | 74 | 7 | 0.0 | 0.9 | 0.00 | 0.00 | 0.00 | 76 | 1017.0 |
| 20260905150924 | 75 | 347 | 0.0 | 0.0 | 0.00 | 0.00 | 0.00 | 75 | 1017.0 |
| 20260905150419 | 74 | 4 | 0.0 | 0.0 | 0.00 | 0.00 | 0.00 | 74 | 1017.0 |
| 20260905145915 | 74 | 26 | 0.0 | 0.0 | 0.00 | 0.00 | 0.00 | 76 | 1017.0 |
| 20260905145410 | 74 | 347 | 0.0 | 0.0 | 0.00 | 0.00 | 0.00 | 77 | 1016.6 |
| 20260905144909 | 71 | 17 | 0.0 | 0.0 | 0.00 | 0.00 | 0.00 | 82 | 1016.6 |
| 20260905144405 | 70 | 348 | 0.0 | 0.0 | 0.00 | 0.00 | 0.00 | 86 | 1016.6 |
| 20260905143904 | 69 | 354 | 0.0 | 0.0 | 0.00 | 0.00 | 0.00 | 90 | 1016.6 |
| 20260905143358 | 68 | 354 | 0.0 | 0.0 | 0.00 | 0.00 | 0.00 | 92 | 1016.3 |
| 20260905142857 | 67 | 347 | 0.0 | 0.0 | 0.00 | 0.00 | 0.00 | 94 | 1016.0 |
| 20260905142356 | 66 | 11 | 0.0 | 0.0 | 0.00 | 0.00 | 0.00 | 94 | 1016.3 |
| 20260905141852 | 66 | 343 | 0.0 | 0.0 | 0.00 | 0.00 | 0.00 | 95 | 1016.3 |
| 20260905141347 | 66 | 352 | 0.0 | 0.0 | 0.00 | 0.00 | 0.00 | 95 | 1016.6 |
| 20260905140844 | 66 | 348 | 0.0 | 0.0 | 0.00 | 0.00 | 0.00 | 95 | 1016.3 |
| 20260905140343 | 65 | 336 | 0.0 | 0.0 | 0.00 | 0.00 | 0.00 | 95 | 1016.3 |
| 20260905135842 | 64 | 345 | 0.0 | 0.0 | 0.00 | 0.00 | 0.00 | 95 | 1016.3 |
| 20260905135338 | 64 | 345 | 0.0 | 0.0 | 0.00 | 0.00 | 0.00 | 95 | 1016.3 |
| 20260905134833 | 64 | 334 | 0.0 | 0.0 | 0.00 | 0.00 | 0.00 | 95 | 1016.0 |
| 20260905134326 | 63 | 345 | 0.0 | 0.0 | 0.00 | 0.00 | 0.00 | 95 | 1016.3 |
| 20260905133821 | 63 | 341 | 0.0 | 0.0 | 0.00 | 0.00 | 0.00 | 95 | 1016.0 |
| 20260905133316 | 63 | 341 | 0.0 | 0.0 | 0.00 | 0.00 | 0.00 | 95 | 1016.0 |
| 20260905132815 | 63 | 346 | 0.0 | 0.0 | 0.00 | 0.00 | 0.00 | 95 | 1016.0 |
| 20260905132311 | 63 | 344 | 0.0 | 0.0 | 0.00 | 0.00 | 0.00 | 95 | 1016.0 |
| 20260905131805 | 63 | 348 | 0.0 | 0.0 | 0.00 | 0.00 | 0.00 | 95 | 1015.6 |
| 20260905131301 | 63 | 346 | 0.0 | 0.0 | 0.00 | 0.00 | 0.00 | 95 | 1015.6 |
| 20260905130755 | 63 | 342 | 0.0 | 0.0 | 0.00 | 0.00 | 0.00 | 95 | 1016.0 |
| 20260905130254 | 62 | 346 | 0.0 | 0.0 | 0.00 | 0.00 | 0.00 | 95 | 1016.0 |
| 20260905125750 | 62 | 343 | 0.0 | 0.0 | 0.00 | 0.00 | 0.00 | 95 | 1016.0 |
| 20260905125244 | 62 | 344 | 0.0 | 0.0 | 0.00 | 0.00 | 0.00 | 95 | 1016.0 |
| 20260905124741 | 62 | 342 | 0.0 | 0.0 | 0.00 | 0.00 | 0.00 | 95 | 1016.0 |
| 20260905124237 | 62 | 341 | 0.0 | 0.0 | 0.00 | 0.00 | 0.00 | 95 | 1016.0 |
| 20260905123732 | 63 | 340 | 0.0 | 0.0 | 0.00 | 0.00 | 0.00 | 95 | 1015.6 |
| 20260905123229 | 63 | 336 | 0.0 | 0.0 | 0.00 | 0.00 | 0.00 | 94 | 1015.6 |
| 20260905122729 | 63 | 344 | 0.0 | 0.0 | 0.00 | 0.00 | 0.00 | 94 | 1015.6 |
| 20260905122228 | 63 | 342 | 0.0 | 0.0 | 0.00 | 0.00 | 0.00 | 94 | 1015.6 |
| 20260905121724 | 63 | 343 | 0.0 | 0.0 | 0.00 | 0.00 | 0.00 | 94 | 1015.6 |
| 20260905121220 | 63 | 344 | 0.0 | 0.0 | 0.00 | 0.00 | 0.00 | 94 | 1016.0 |
| 20260905120719 | 63 | 343 | 0.0 | 0.0 | 0.00 | 0.00 | 0.00 | 94 | 1015.6 |
| 20260905120213 | 63 | 349 | 0.0 | 0.0 | 0.00 | 0.00 | 0.00 | 94 | 1016.0 |
| 20260905115708 | 63 | 346 | 0.0 | 0.0 | 0.00 | 0.00 | 0.00 | 94 | 1015.6 |
| 20260905115203 | 63 | 343 | 0.0 | 0.0 | 0.00 | 0.00 | 0.00 | 94 | 1016.0 |
| 20260905114703 | 63 | 348 | 0.0 | 0.0 | 0.00 | 0.00 | 0.00 | 94 | 1016.0 |
| 20260905114201 | 63 | 0 | 0.0 | 0.9 | 0.00 | 0.00 | 0.00 | 94 | 1015.6 |
| 20260905113655 | 63 | 342 | 0.0 | 0.9 | 0.00 | 0.00 | 0.00 | 94 | 1015.6 |
| 20260905113151 | 63 | 343 | 0.0 | 0.0 | 0.00 | 0.00 | 0.00 | 94 | 1016.0 |
| 20260905112650 | 64 | 343 | 0.0 | 0.0 | 0.00 | 0.00 | 0.00 | 94 | 1016.0 |
| 20260905112146 | 64 | 343 | 0.0 | 0.0 | 0.00 | 0.00 | 0.00 | 94 | 1015.6 |
| 20260905111646 | 64 | 348 | 0.0 | 0.0 | 0.00 | 0.00 | 0.00 | 94 | 1016.0 |
| 20260905111145 | 64 | 345 | 0.0 | 0.0 | 0.00 | 0.00 | 0.00 | 94 | 1016.0 |
| 20260905110644 | 64 | 342 | 0.0 | 0.0 | 0.00 | 0.00 | 0.00 | 94 | 1016.0 |
| 20260905110140 | 64 | 343 | 0.0 | 0.0 | 0.00 | 0.00 | 0.00 | 94 | 1015.6 |
| 20260905105635 | 64 | 342 | 0.0 | 0.0 | 0.00 | 0.00 | 0.00 | 94 | 1015.6 |
| 20260905105134 | 64 | 330 | 0.0 | 0.0 | 0.00 | 0.00 | 0.00 | 94 | 1015.6 |
| 20260905104629 | 64 | 341 | 0.0 | 0.0 | 0.00 | 0.00 | 0.00 | 94 | 1016.0 |
| 20260905104125 | 64 | 337 | 0.0 | 0.0 | 0.00 | 0.00 | 0.00 | 93 | 1015.6 |
| 20260905103620 | 64 | 341 | 0.0 | 0.0 | 0.00 | 0.00 | 0.00 | 93 | 1016.0 |
| 20260905103116 | 64 | 343 | 0.0 | 0.0 | 0.00 | 0.00 | 0.00 | 93 | 1016.0 |
| 20260905102611 | 64 | 344 | 0.0 | 0.0 | 0.00 | 0.00 | 0.00 | 93 | 1016.0 |
| 20260905102108 | 64 | 336 | 0.0 | 0.0 | 0.00 | 0.00 | 0.00 | 93 | 1016.0 |
| 20260905101606 | 65 | 340 | 0.0 | 0.0 | 0.00 | 0.00 | 0.00 | 93 | 1016.0 |
| 20260905101104 | 65 | 351 | 0.0 | 0.0 | 0.00 | 0.00 | 0.00 | 93 | 1016.0 |
| 20260905100601 | 65 | 343 | 0.0 | 0.0 | 0.00 | 0.00 | 0.00 | 93 | 1016.0 |
| 20260905100055 | 65 | 343 | 0.0 | 0.9 | 0.00 | 0.00 | 0.00 | 93 | 1016.0 |
| 20260905095549 | 65 | 356 | 0.0 | 0.0 | 0.00 | 0.00 | 0.00 | 93 | 1016.0 |
| 20260905095045 | 65 | 342 | 0.0 | 0.0 | 0.00 | 0.00 | 0.00 | 93 | 1016.0 |
| 20260905094539 | 65 | 345 | 0.0 | 0.0 | 0.00 | 0.00 | 0.00 | 93 | 1016.0 |
| 20260905094039 | 65 | 347 | 0.0 | 0.0 | 0.00 | 0.00 | 0.00 | 93 | 1016.0 |
| 20260905093533 | 65 | 347 | 0.0 | 0.0 | 0.00 | 0.00 | 0.00 | 93 | 1016.0 |
| 20260905093030 | 65 | 341 | 0.0 | 0.0 | 0.00 | 0.00 | 0.00 | 92 | 1015.6 |
| 20260905092530 | 65 | 350 | 0.0 | 0.0 | 0.00 | 0.00 | 0.00 | 92 | 1016.0 |
| 20260905092026 | 65 | 341 | 0.0 | 0.0 | 0.00 | 0.00 | 0.00 | 92 | 1016.3 |
| 20260905091524 | 65 | 335 | 0.0 | 0.0 | 0.00 | 0.00 | 0.00 | 92 | 1016.0 |
| 20260905091019 | 66 | 336 | 0.0 | 0.0 | 0.00 | 0.00 | 0.00 | 92 | 1016.0 |
| 20260905090519 | 66 | 345 | 0.0 | 0.0 | 0.00 | 0.00 | 0.00 | 92 | 1016.0 |
| 20260905090014 | 66 | 348 | 0.0 | 0.9 | 0.00 | 0.00 | 0.00 | 92 | 1016.0 |
| 20260905085512 | 66 | 342 | 0.0 | 0.0 | 0.00 | 0.00 | 0.00 | 92 | 1016.0 |
| 20260905085009 | 66 | 333 | 0.0 | 0.0 | 0.00 | 0.00 | 0.00 | 92 | 1016.0 |
| 20260905084503 | 66 | 343 | 0.0 | 0.9 | 0.00 | 0.00 | 0.00 | 92 | 1016.0 |
| 20260905083957 | 66 | 351 | 0.0 | 0.9 | 0.00 | 0.00 | 0.00 | 92 | 1016.0 |
| 20260905083453 | 66 | 346 | 0.0 | 0.0 | 0.00 | 0.00 | 0.00 | 92 | 1016.0 |
| 20260905082949 | 67 | 345 | 0.0 | 0.0 | 0.00 | 0.00 | 0.00 | 92 | 1016.3 |
| 20260905082444 | 67 | 354 | 0.0 | 0.0 | 0.00 | 0.00 | 0.00 | 92 | 1016.3 |
| 20260905081939 | 67 | 4 | 0.0 | 0.0 | 0.00 | 0.00 | 0.00 | 92 | 1016.0 |
| 20260905081434 | 67 | 4 | 0.9 | 1.7 | 0.00 | 0.00 | 0.00 | 92 | 1016.3 |
| 20260905080933 | 67 | 344 | 0.0 | 1.7 | 0.00 | 0.00 | 0.00 | 92 | 1016.0 |
| 20260905080428 | 67 | 28 | 0.9 | 1.7 | 0.00 | 0.00 | 0.00 | 92 | 1016.0 |
| 20260905075927 | 67 | 24 | 0.9 | 0.9 | 0.00 | 0.00 | 0.00 | 92 | 1016.3 |
| 20260905075421 | 67 | 8 | 0.9 | 1.7 | 0.00 | 0.00 | 0.00 | 92 | 1016.0 |
| 20260905074920 | 67 | 12 | 0.9 | 0.9 | 0.00 | 0.00 | 0.00 | 92 | 1016.3 |
| 20260905074416 | 67 | 6 | 0.9 | 0.9 | 0.00 | 0.00 | 0.00 | 92 | 1016.0 |
| 20260905073912 | 67 | 15 | 0.9 | 0.9 | 0.00 | 0.00 | 0.00 | 93 | 1016.0 |
| 20260905073407 | 67 | 3 | 0.0 | 0.9 | 0.00 | 0.00 | 0.00 | 92 | 1016.0 |
| 20260905072902 | 67 | 47 | 0.9 | 1.7 | 0.00 | 0.00 | 0.00 | 93 | 1016.3 |
| 20260905072356 | 68 | 354 | 0.9 | 1.7 | 0.00 | 0.00 | 0.00 | 93 | 1016.3 |
| 20260905071852 | 68 | 38 | 0.9 | 1.7 | 0.00 | 0.00 | 0.00 | 93 | 1016.0 |
| 20260905071349 | 68 | 358 | 0.9 | 1.7 | 0.00 | 0.00 | 0.00 | 93 | 1016.0 |
| 20260905070843 | 68 | 11 | 0.9 | 1.7 | 0.00 | 0.00 | 0.00 | 93 | 1016.0 |
| 20260905070340 | 68 | 26 | 1.7 | 1.7 | 0.00 | 0.00 | 0.00 | 93 | 1016.0 |
| 20260905065839 | 68 | 351 | 0.0 | 1.7 | 0.00 | 0.00 | 0.00 | 93 | 1016.0 |
| 20260905065337 | 68 | 13 | 0.9 | 1.7 | 0.00 | 0.00 | 0.00 | 93 | 1016.0 |
| 20260905064832 | 67 | 356 | 0.0 | 1.7 | 0.00 | 0.00 | 0.00 | 93 | 1016.0 |
| 20260905064328 | 68 | 14 | 0.9 | 0.9 | 0.00 | 0.00 | 0.00 | 93 | 1016.0 |
| 20260905063826 | 68 | 350 | 0.0 | 0.9 | 0.00 | 0.00 | 0.00 | 93 | 1016.0 |
| 20260905063323 | 67 | 328 | 0.0 | 0.0 | 0.00 | 0.00 | 0.00 | 93 | 1016.0 |
| 20260905062819 | 68 | 351 | 0.0 | 0.0 | 0.00 | 0.00 | 0.00 | 93 | 1016.3 |
| 20260905062319 | 68 | 344 | 0.0 | 0.0 | 0.00 | 0.00 | 0.00 | 93 | 1016.0 |
| 20260905061813 | 68 | 346 | 0.0 | 0.0 | 0.00 | 0.00 | 0.00 | 92 | 1016.0 |
| 20260905061308 | 68 | 341 | 0.0 | 0.0 | 0.00 | 0.00 | 0.00 | 92 | 1016.0 |
| 20260905060802 | 68 | 345 | 0.0 | 0.0 | 0.00 | 0.00 | 0.00 | 92 | 1016.0 |
| 20260905060259 | 68 | 1 | 0.0 | 0.0 | 0.00 | 0.00 | 0.00 | 92 | 1016.0 |
| 20260905055758 | 68 | 2 | 0.0 | 0.0 | 0.00 | 0.00 | 0.00 | 92 | 1016.0 |
| 20260905055252 | 68 | 0 | 0.0 | 0.0 | 0.00 | 0.00 | 0.00 | 92 | 1016.0 |
| 20260905054748 | 68 | 356 | 0.0 | 0.0 | 0.00 | 0.00 | 0.00 | 92 | 1016.0 |
| 20260905054245 | 68 | 327 | 0.0 | 0.0 | 0.00 | 0.00 | 0.00 | 92 | 1016.0 |
| 20260905053743 | 68 | 350 | 0.0 | 0.0 | 0.00 | 0.00 | 0.00 | 91 | 1016.0 |
| 20260905053239 | 67 | 348 | 0.0 | 0.0 | 0.00 | 0.00 | 0.00 | 91 | 1016.0 |
| 20260905052738 | 68 | 345 | 0.0 | 0.0 | 0.00 | 0.00 | 0.00 | 91 | 1015.6 |
| 20260905052233 | 68 | 340 | 0.0 | 0.0 | 0.00 | 0.00 | 0.00 | 91 | 1016.0 |
| 20260905051733 | 68 | 340 | 0.0 | 0.0 | 0.00 | 0.00 | 0.00 | 91 | 1016.0 |
| 20260905051230 | 68 | 1 | 0.0 | 0.0 | 0.00 | 0.00 | 0.00 | 91 | 1016.0 |
| 20260905050726 | 68 | 357 | 0.0 | 0.0 | 0.00 | 0.00 | 0.00 | 91 | 1016.0 |
| 20260905050222 | 68 | 352 | 0.0 | 0.0 | 0.00 | 0.00 | 0.00 | 90 | 1016.0 |
| 20260905045722 | 68 | 347 | 0.0 | 0.0 | 0.00 | 0.00 | 0.00 | 90 | 1016.0 |
| 20260905045217 | 68 | 23 | 0.0 | 0.0 | 0.00 | 0.00 | 0.00 | 90 | 1016.0 |
| 20260905044712 | 68 | 342 | 0.0 | 0.0 | 0.00 | 0.00 | 0.00 | 90 | 1016.0 |
| 20260905044207 | 69 | 337 | 0.0 | 0.0 | 0.00 | 0.00 | 0.00 | 90 | 1016.0 |
| 20260905043706 | 68 | 341 | 0.0 | 0.0 | 0.00 | 0.00 | 0.00 | 89 | 1015.6 |
| 20260905043200 | 69 | 340 | 0.0 | 0.0 | 0.00 | 0.00 | 0.00 | 89 | 1015.6 |
| 20260905042655 | 69 | 337 | 0.0 | 0.0 | 0.00 | 0.00 | 0.00 | 89 | 1015.6 |
| 20260905042154 | 69 | 340 | 0.0 | 0.0 | 0.00 | 0.00 | 0.00 | 88 | 1015.3 |
| 20260905041650 | 69 | 343 | 0.0 | 0.0 | 0.00 | 0.00 | 0.00 | 88 | 1015.6 |
| 20260905041145 | 69 | 347 | 0.0 | 0.0 | 0.00 | 0.00 | 0.00 | 88 | 1015.3 |
| 20260905040640 | 69 | 336 | 0.0 | 0.0 | 0.00 | 0.00 | 0.00 | 88 | 1015.6 |
| 20260905040139 | 69 | 333 | 0.0 | 0.0 | 0.00 | 0.00 | 0.00 | 88 | 1015.3 |
| 20260905035634 | 70 | 338 | 0.0 | 0.0 | 0.00 | 0.00 | 0.00 | 88 | 1015.3 |
| 20260905035131 | 70 | 331 | 0.0 | 0.9 | 0.00 | 0.00 | 0.00 | 88 | 1015.3 |
| 20260905034626 | 70 | 315 | 0.0 | 1.7 | 0.00 | 0.00 | 0.00 | 87 | 1014.9 |
| 20260905034126 | 70 | 287 | 0.9 | 1.7 | 0.00 | 0.00 | 0.00 | 87 | 1014.9 |
| 20260905033620 | 70 | 345 | 0.0 | 0.9 | 0.00 | 0.00 | 0.00 | 86 | 1015.3 |
| 20260905033116 | 70 | 327 | 0.0 | 1.7 | 0.00 | 0.00 | 0.00 | 86 | 1014.9 |
| 20260905032616 | 70 | 329 | 0.0 | 0.9 | 0.00 | 0.00 | 0.00 | 86 | 1014.9 |
| 20260905032115 | 70 | 340 | 0.0 | 0.9 | 0.00 | 0.00 | 0.00 | 86 | 1014.9 |
| 20260905031611 | 70 | 333 | 0.0 | 0.9 | 0.00 | 0.00 | 0.00 | 85 | 1014.9 |
| 20260905031111 | 70 | 321 | 0.9 | 1.7 | 0.00 | 0.00 | 0.00 | 85 | 1014.9 |
| 20260905030606 | 70 | 320 | 0.0 | 0.9 | 0.00 | 0.00 | 0.00 | 85 | 1014.6 |
| 20260905025557 | 71 | 290 | 0.9 | 2.6 | 0.00 | 0.00 | 0.00 | 84 | 1014.9 |
| 20260905025053 | 70 | 303 | 0.9 | 2.6 | 0.00 | 0.00 | 0.00 | 83 | 1014.9 |
| 20260905024548 | 70 | 43 | 0.9 | 1.7 | 0.00 | 0.00 | 0.00 | 83 | 1014.9 |
| 20260905024043 | 70 | 291 | 0.9 | 1.7 | 0.00 | 0.00 | 0.00 | 83 | 1014.9 |
| 20260905023538 | 71 | 300 | 1.7 | 2.6 | 0.00 | 0.00 | 0.00 | 83 | 1014.6 |